sat.trackr.live / text

‹ back to catalog

STARLINK-35807

NORAD 66358 · 2025-254L

PAYLOAD ACTIVE UNKNOWN

§ Identity

Operator
Country
US
Launch date
2025-11-06
Launch site
AFWTR
Launch vehicle
Mass (kg)
RCS (m²)

Purposes: comms

External: N2YO · Heavens-Above · Gunter

§ Orbital elements

Epoch: 2026-09-20T21:44:13.266240Z

Period
94.01 min
Inclination
53.1572°
Eccentricity
0.0000755
Mean motion
15.31715295 rev/d
Perigee alt
470.2 km
Apogee alt
471.2 km
Semi-major
6,848.8 km
B*
5.3152e-4
RAAN
44.3109°
Arg perigee
95.9235°
Mean anomaly
264.1853°
Rev number
4,888

§ Raw data

STARLINK-358071 66358U 25254L   26263.90570910  .00016172  00000+0  53152-3 0  99912 66358  53.1572  44.3109 0000755  95.9235 264.1853 15.31715295 48880

JSON: /api/v1/satellites/66358 · /tle

For live sub-satellite position, see the globe view (requires WebGL).

§ Visibility from observer

Set your observer location to see the next 7 days of passes ≥ 10°. The values pass through the URL so the page stays shareable.

No JS? Fill the form by hand. The geolocation button needs JavaScript.